{"data":{"norad_id":45151,"epoch":"2026-05-25T02:55:43.328064Z","epoch_age_seconds":61133,"freshness":"FRESH","line1":"1 45151U 20008W   26145.12202926  .00000542  00000+0  14925-2 0  9991","line2":"2 45151  87.8919  25.6468 0001871  78.6695 281.4643 13.11415287307381","mean_motion":13.11415287,"eccentricity":0.0001871,"inclination_deg":87.8919,"raan_deg":25.6468,"arg_perigee_deg":78.6695,"mean_anomaly_deg":281.4643,"bstar":0.0014925,"rev_number":30738,"period_min":109.80503386491,"perigee_km":1216.2679214859,"apogee_km":1219.1102796127,"semimajor_km":7595.8261005493,"source":"CELESTRAK","updated_at":"2026-05-25T13:38:22.336991Z"}}